Time,TemperatureF,DewpointF,PressureIn,WindDirection,WindDirectionDegrees,WindSpeedMPH,WindSpeedGustMPH,Humidity,HourlyPrecipIn,Conditions,Clouds,dailyrainin,SoftwareType,DateUTC
2015-07-07 00:00:00,56.2,46.9,30.02,SSW,203,0.0,0.0,71,0.00,,---,0.00,VWS V14.01,2015-07-07 06:00:00,
2015-07-07 00:10:00,55.5,46.6,30.02,SSW,203,0.0,0.0,72,0.00,,---,0.00,VWS V14.01,2015-07-07 06:10:00,
2015-07-07 00:15:00,55.2,46.7,30.02,SSW,203,0.0,0.0,73,0.00,,---,0.00,VWS V14.01,2015-07-07 06:15:00,
2015-07-07 00:20:00,54.9,46.8,30.03,SSW,203,0.0,0.0,74,0.00,,---,0.00,VWS V14.01,2015-07-07 06:20:00,
2015-07-07 00:25:00,54.6,46.8,30.03,SSW,203,0.0,0.0,75,0.00,,---,0.00,VWS V14.01,2015-07-07 06:25:00,
2015-07-07 00:30:00,54.2,46.5,30.03,SSW,203,0.0,0.0,75,0.00,,---,0.00,VWS V14.01,2015-07-07 06:30:00,
2015-07-07 00:35:00,53.9,46.2,30.03,SSW,203,0.0,0.0,75,0.00,,---,0.00,VWS V14.01,2015-07-07 06:35:00,
2015-07-07 00:40:00,53.6,46.2,30.03,SSW,202,0.0,0.0,76,0.00,,---,0.00,VWS V14.01,2015-07-07 06:40:00,
2015-07-07 00:45:00,54.1,46.7,30.03,SSW,203,3.0,4.0,76,0.00,,---,0.00,VWS V14.01,2015-07-07 06:45:00,
2015-07-07 00:50:00,53.4,46.0,30.04,SW,228,0.0,7.0,76,0.00,,---,0.00,VWS V14.01,2015-07-07 06:50:00,
2015-07-07 00:55:00,52.8,45.5,30.05,SW,230,2.0,4.0,76,0.00,,---,0.00,VWS V14.01,2015-07-07 06:55:00,
2015-07-07 01:00:00,52.9,45.5,30.05,NW,314,4.0,7.0,76,0.00,,---,0.00,VWS V14.01,2015-07-07 07:00:00,
2015-07-07 01:05:00,53.9,46.2,30.05,NNW,344,4.0,8.0,75,0.00,,---,0.00,VWS V14.01,2015-07-07 07:05:00,
2015-07-07 01:10:00,55.0,46.9,30.05,North,360,5.0,10.0,74,0.00,,---,0.00,VWS V14.01,2015-07-07 07:10:00,
2015-07-07 01:15:00,55.2,47.1,30.05,North,360,5.0,8.0,74,0.00,,---,0.00,VWS V14.01,2015-07-07 07:15:00,
2015-07-07 01:20:00,55.0,46.9,30.05,North,360,0.0,6.0,74,0.00,,---,0.00,VWS V14.01,2015-07-07 07:20:00,
2015-07-07 01:25:00,54.7,46.9,30.06,North,360,3.0,6.0,75,0.00,,---,0.00,VWS V14.01,2015-07-07 07:25:00,
2015-07-07 01:30:00,54.6,46.8,30.06,NNW,336,2.0,10.0,75,0.00,,---,0.00,VWS V14.01,2015-07-07 07:30:00,
2015-07-07 01:35:00,54.7,46.9,30.06,NNW,331,5.0,8.0,75,0.00,,---,0.00,VWS V14.01,2015-07-07 07:35:00,
2015-07-07 01:40:00,54.6,46.8,30.06,NNW,329,2.0,7.0,75,0.00,,---,0.00,VWS V14.01,2015-07-07 07:40:00,
2015-07-07 01:45:00,54.4,46.7,30.06,NNW,329,3.0,5.0,75,0.00,,---,0.00,VWS V14.01,2015-07-07 07:45:00,
2015-07-07 01:50:00,54.1,46.4,30.07,NNW,329,1.0,7.0,75,0.00,,---,0.00,VWS V14.01,2015-07-07 07:50:00,
2015-07-07 01:55:00,53.7,46.3,30.07,NNW,329,3.0,7.0,76,0.00,,---,0.00,VWS V14.01,2015-07-07 07:55:00,
2015-07-07 02:00:00,53.0,45.7,30.07,NNW,329,7.0,7.0,76,0.00,,---,0.00,VWS V14.01,2015-07-07 08:00:00,
2015-07-07 02:05:00,52.5,45.5,30.07,NNW,329,1.0,7.0,77,0.00,,---,0.00,VWS V14.01,2015-07-07 08:05:00,
2015-07-07 02:10:00,52.2,45.2,30.07,NNW,329,2.0,6.0,77,0.00,,---,0.00,VWS V14.01,2015-07-07 08:10:00,
2015-07-07 02:15:00,52.2,45.2,30.07,NNW,328,2.0,7.0,77,0.00,,---,0.00,VWS V14.01,2015-07-07 08:15:00,
2015-07-07 02:20:00,52.5,45.8,30.08,NNW,328,3.0,7.0,78,0.00,,---,0.00,VWS V14.01,2015-07-07 08:20:00,
2015-07-07 02:25:00,52.7,46.0,30.08,NNW,330,4.0,9.0,78,0.00,,---,0.00,VWS V14.01,2015-07-07 08:25:00,
2015-07-07 02:30:00,52.8,45.8,30.08,NNW,333,1.0,7.0,77,0.00,,---,0.00,VWS V14.01,2015-07-07 08:30:00,
2015-07-07 02:35:00,52.7,45.7,30.08,NNW,338,5.0,8.0,77,0.00,,---,0.00,VWS V14.01,2015-07-07 08:35:00,
2015-07-07 02:40:00,52.8,46.1,30.08,NNW,340,2.0,8.0,78,0.00,,---,0.00,VWS V14.01,2015-07-07 08:40:00,
2015-07-07 02:45:00,52.7,46.0,30.08,NNW,340,4.0,5.0,78,0.00,,---,0.00,VWS V14.01,2015-07-07 08:45:00,
2015-07-07 02:50:00,52.6,46.0,30.08,NNW,340,2.0,6.0,78,0.00,,---,0.00,VWS V14.01,2015-07-07 08:50:00,
2015-07-07 02:55:00,52.4,45.8,30.08,NNW,340,0.0,6.0,78,0.00,,---,0.00,VWS V14.01,2015-07-07 08:55:00,
2015-07-07 03:00:00,52.2,45.6,30.08,NNW,340,0.0,1.0,78,0.00,,---,0.00,VWS V14.01,2015-07-07 09:00:00,
2015-07-07 03:05:00,51.9,45.3,30.08,NNW,340,1.0,1.0,78,0.00,,---,0.00,VWS V14.01,2015-07-07 09:05:00,
2015-07-07 03:10:00,51.7,45.1,30.08,NNW,340,0.0,4.0,78,0.00,,---,0.00,VWS V14.01,2015-07-07 09:10:00,
2015-07-07 03:15:00,51.6,45.3,30.09,NNW,340,0.0,3.0,79,0.00,,---,0.00,VWS V14.01,2015-07-07 09:15:00,
2015-07-07 03:20:00,51.4,45.1,30.08,NNW,340,0.0,6.0,79,0.00,,---,0.00,VWS V14.01,2015-07-07 09:20:00,
2015-07-07 03:25:00,51.2,44.9,30.08,NNW,340,0.0,4.0,79,0.00,,---,0.00,VWS V14.01,2015-07-07 09:25:00,
2015-07-07 03:30:00,51.1,44.8,30.08,NNW,340,0.0,2.0,79,0.00,,---,0.00,VWS V14.01,2015-07-07 09:30:00,
2015-07-07 03:35:00,51.0,44.7,30.08,NNW,340,2.0,4.0,79,0.00,,---,0.00,VWS V14.01,2015-07-07 09:35:00,
2015-07-07 03:40:00,50.7,44.4,30.09,NNW,340,0.0,4.0,79,0.00,,---,0.00,VWS V14.01,2015-07-07 09:40:00,
2015-07-07 03:45:00,50.4,44.1,30.09,NNW,340,0.0,3.0,79,0.00,,---,0.00,VWS V14.01,2015-07-07 09:45:00,
2015-07-07 03:50:00,50.0,44.1,30.09,NNW,340,3.0,6.0,80,0.00,,---,0.00,VWS V14.01,2015-07-07 09:50:00,
2015-07-07 03:55:00,49.7,43.8,30.09,NNW,340,4.0,4.0,80,0.00,,---,0.00,VWS V14.01,2015-07-07 09:55:00,
2015-07-07 04:00:00,49.5,43.6,30.09,NNW,340,1.0,6.0,80,0.00,,---,0.00,VWS V14.01,2015-07-07 10:00:00,
2015-07-07 04:05:00,49.3,43.4,30.09,NNW,340,0.0,4.0,80,0.00,,---,0.00,VWS V14.01,2015-07-07 10:05:00,
2015-07-07 04:10:00,49.1,43.2,30.09,NNW,340,2.0,7.0,80,0.00,,---,0.00,VWS V14.01,2015-07-07 10:10:00,
2015-07-07 04:15:00,49.2,43.6,30.10,NNW,340,3.0,7.0,81,0.00,,---,0.00,VWS V14.01,2015-07-07 10:15:00,
2015-07-07 04:20:00,49.4,43.8,30.10,NNW,340,3.0,6.0,81,0.00,,---,0.00,VWS V14.01,2015-07-07 10:20:00,
2015-07-07 04:25:00,49.6,44.0,30.10,NNW,340,4.0,6.0,81,0.00,,---,0.00,VWS V14.01,2015-07-07 10:25:00,
2015-07-07 04:30:00,49.7,44.1,30.10,NNW,340,2.0,7.0,81,0.00,,---,0.00,VWS V14.01,2015-07-07 10:30:00,
2015-07-07 04:35:00,49.8,44.2,30.10,NNW,340,5.0,6.0,81,0.00,,---,0.00,VWS V14.01,2015-07-07 10:35:00,
2015-07-07 04:40:00,50.0,44.4,30.10,NNW,340,1.0,6.0,81,0.00,,---,0.00,VWS V14.01,2015-07-07 10:40:00,
2015-07-07 04:45:00,50.2,44.6,30.10,NNW,340,0.0,6.0,81,0.00,,---,0.00,VWS V14.01,2015-07-07 10:45:00,
2015-07-07 04:50:00,50.4,44.8,30.10,NNW,340,1.0,6.0,81,0.00,,---,0.00,VWS V14.01,2015-07-07 10:50:00,
2015-07-07 04:55:00,50.8,45.2,30.10,NNW,341,2.0,6.0,81,0.00,,---,0.00,VWS V14.01,2015-07-07 10:55:00,
2015-07-07 05:05:00,51.6,45.6,30.11,NNW,341,3.0,9.0,80,0.00,,---,0.00,VWS V14.01,2015-07-07 11:05:00,
2015-07-07 05:10:00,51.6,45.3,30.11,North,355,3.0,12.0,79,0.00,,---,0.00,VWS V14.01,2015-07-07 11:10:00,
2015-07-07 05:15:00,51.6,45.0,30.11,North,360,6.0,12.0,78,0.00,,---,0.00,VWS V14.01,2015-07-07 11:15:00,
2015-07-07 05:20:00,51.5,44.9,30.11,North,360,3.0,10.0,78,0.00,,---,0.00,VWS V14.01,2015-07-07 11:20:00,
2015-07-07 05:25:00,51.4,44.8,30.11,North,360,0.0,9.0,78,0.00,,---,0.00,VWS V14.01,2015-07-07 11:25:00,
2015-07-07 05:30:00,51.2,44.6,30.11,NNW,335,3.0,9.0,78,0.00,,---,0.00,VWS V14.01,2015-07-07 11:30:00,
2015-07-07 05:35:00,51.1,44.5,30.11,NNW,333,8.0,8.0,78,0.00,,---,0.00,VWS V14.01,2015-07-07 11:35:00,
2015-07-07 05:40:00,51.0,44.4,30.11,NNW,333,0.0,8.0,78,0.00,,---,0.00,VWS V14.01,2015-07-07 11:40:00,
2015-07-07 05:45:00,50.9,44.3,30.11,NNW,332,7.0,8.0,78,0.00,,---,0.00,VWS V14.01,2015-07-07 11:45:00,
2015-07-07 05:50:00,50.6,44.0,30.11,NNW,328,3.0,9.0,78,0.00,,---,0.00,VWS V14.01,2015-07-07 11:50:00,
2015-07-07 05:55:00,49.9,43.3,30.12,NW,326,4.0,8.0,78,0.00,,---,0.00,VWS V14.01,2015-07-07 11:55:00,
2015-07-07 06:00:00,49.3,43.1,30.12,NW,324,6.0,9.0,79,0.00,,---,0.00,VWS V14.01,2015-07-07 12:00:00,
2015-07-07 06:05:00,48.7,42.5,30.12,NW,323,10.0,10.0,79,0.00,,---,0.00,VWS V14.01,2015-07-07 12:05:00,
2015-07-07 06:10:00,48.0,41.8,30.12,NW,317,6.0,10.0,79,0.00,,---,0.00,VWS V14.01,2015-07-07 12:10:00,
2015-07-07 06:20:00,47.1,40.9,30.12,NW,315,6.0,10.0,79,0.00,,---,0.00,VWS V14.01,2015-07-07 12:20:00,
2015-07-07 06:25:00,46.9,40.7,30.13,NW,315,6.0,9.0,79,0.00,,---,0.00,VWS V14.01,2015-07-07 12:25:00,
2015-07-07 06:30:00,46.7,40.5,30.13,NW,315,6.0,8.0,79,0.00,,---,0.00,VWS V14.01,2015-07-07 12:30:00,
2015-07-07 06:45:00,46.8,40.6,30.13,NW,313,1.0,8.0,79,0.00,,---,0.00,VWS V14.01,2015-07-07 12:45:00,
2015-07-07 06:50:00,46.9,40.7,30.13,NW,313,1.0,8.0,79,0.00,,---,0.00,VWS V14.01,2015-07-07 12:50:00,
2015-07-07 06:55:00,47.0,40.8,30.13,NW,314,9.0,9.0,79,0.00,,---,0.00,VWS V14.01,2015-07-07 12:55:00,
2015-07-07 07:00:00,47.2,40.7,30.13,NW,316,1.0,12.0,78,0.00,,---,0.00,VWS V14.01,2015-07-07 13:00:00,
2015-07-07 07:05:00,47.3,40.8,30.13,NW,317,3.0,11.0,78,0.00,,---,0.00,VWS V14.01,2015-07-07 13:05:00,
2015-07-07 07:15:00,47.5,41.0,30.14,NW,319,5.0,10.0,78,0.00,,---,0.00,VWS V14.01,2015-07-07 13:15:00,
2015-07-07 07:20:00,47.7,41.2,30.14,NW,319,8.0,10.0,78,0.00,,---,0.00,VWS V14.01,2015-07-07 13:20:00,
2015-07-07 07:30:00,47.9,41.0,30.14,NW,321,0.0,12.0,77,0.00,,---,0.00,VWS V14.01,2015-07-07 13:30:00,
2015-07-07 07:35:00,48.0,41.2,30.15,NW,322,5.0,12.0,77,0.00,,---,0.00,VWS V14.01,2015-07-07 13:35:00,
2015-07-07 07:40:00,47.9,41.0,30.15,NW,322,8.0,14.0,77,0.00,,---,0.00,VWS V14.01,2015-07-07 13:40:00,
2015-07-07 07:45:00,47.9,41.0,30.15,NNW,340,3.0,12.0,77,0.00,,---,0.00,VWS V14.01,2015-07-07 13:45:00,
2015-07-07 07:50:00,47.8,40.6,30.15,NNW,331,4.0,14.0,76,0.00,,---,0.00,VWS V14.01,2015-07-07 13:50:00,
2015-07-07 07:55:00,48.2,41.3,30.15,NW,321,1.0,13.0,77,0.00,,---,0.00,VWS V14.01,2015-07-07 13:55:00,
2015-07-07 08:00:00,48.5,41.3,30.15,NNW,327,5.0,10.0,76,0.00,,---,0.00,VWS V14.01,2015-07-07 14:00:00,
2015-07-07 08:10:00,48.4,41.5,30.15,NNW,335,4.0,10.0,77,0.00,,---,0.00,VWS V14.01,2015-07-07 14:10:00,
2015-07-07 08:15:00,48.8,41.6,30.15,NNW,342,0.0,9.0,76,0.00,,---,0.00,VWS V14.01,2015-07-07 14:15:00,
2015-07-07 08:25:00,49.2,42.0,30.15,NW,319,2.0,11.0,76,0.00,,---,0.00,VWS V14.01,2015-07-07 14:25:00,
2015-07-07 08:30:00,49.4,41.5,30.16,North,360,9.0,12.0,74,0.00,,---,0.00,VWS V14.01,2015-07-07 14:30:00,
2015-07-07 08:35:00,49.4,41.5,30.16,NNW,342,5.0,13.0,74,0.00,,---,0.00,VWS V14.01,2015-07-07 14:35:00,
2015-07-07 08:40:00,49.6,41.3,30.16,NNW,330,6.0,11.0,73,0.00,,---,0.00,VWS V14.01,2015-07-07 14:40:00,
2015-07-07 08:45:00,49.7,41.0,30.16,NNW,329,7.0,11.0,72,0.00,,---,0.00,VWS V14.01,2015-07-07 14:45:00,
2015-07-07 08:50:00,50.0,41.7,30.16,NNW,333,6.0,7.0,73,0.00,,---,0.00,VWS V14.01,2015-07-07 14:50:00,
2015-07-07 08:55:00,50.0,40.6,30.16,North,355,3.0,10.0,70,0.00,,---,0.00,VWS V14.01,2015-07-07 14:55:00,
2015-07-07 09:00:00,50.3,40.9,30.16,North,351,1.0,10.0,70,0.00,,---,0.00,VWS V14.01,2015-07-07 15:00:00,
2015-07-07 09:05:00,50.4,40.6,30.16,NW,319,1.0,13.0,69,0.00,,---,0.00,VWS V14.01,2015-07-07 15:05:00,
2015-07-07 09:10:00,50.8,41.0,30.16,NNW,327,3.0,10.0,69,0.00,,---,0.00,VWS V14.01,2015-07-07 15:10:00,
2015-07-07 09:15:00,50.9,40.7,30.16,NW,305,9.0,11.0,68,0.00,,---,0.00,VWS V14.01,2015-07-07 15:15:00,
2015-07-07 09:25:00,50.8,39.9,30.16,NW,321,8.0,11.0,66,0.00,,---,0.00,VWS V14.01,2015-07-07 15:25:00,
2015-07-07 09:30:00,51.2,39.0,30.16,North,360,2.0,13.0,63,0.00,,---,0.00,VWS V14.01,2015-07-07 15:30:00,
2015-07-07 09:35:00,51.5,39.3,30.16,North,360,4.0,11.0,63,0.00,,---,0.00,VWS V14.01,2015-07-07 15:35:00,
2015-07-07 09:45:00,52.0,40.2,30.16,NW,317,4.0,13.0,64,0.00,,---,0.00,VWS V14.01,2015-07-07 15:45:00,
2015-07-07 09:50:00,52.6,40.8,30.16,NNE,16,1.0,9.0,64,0.00,,---,0.00,VWS V14.01,2015-07-07 15:50:00,
2015-07-07 09:55:00,52.9,41.1,30.16,North,360,2.0,13.0,64,0.00,,---,0.00,VWS V14.01,2015-07-07 15:55:00,
2015-07-07 10:00:00,52.6,41.2,30.16,NNW,346,3.0,12.0,65,0.00,,---,0.00,VWS V14.01,2015-07-07 16:00:00,
2015-07-07 10:10:00,52.1,41.1,30.16,North,5,9.0,13.0,66,0.00,,---,0.00,VWS V14.01,2015-07-07 16:10:00,
2015-07-07 10:15:00,52.4,40.2,30.16,North,355,2.0,14.0,63,0.00,,---,0.00,VWS V14.01,2015-07-07 16:15:00,
2015-07-07 10:20:00,52.6,40.4,30.16,NW,323,3.0,12.0,63,0.00,,---,0.00,VWS V14.01,2015-07-07 16:20:00,
2015-07-07 10:25:00,52.1,39.9,30.16,North,360,0.0,13.0,63,0.00,,---,0.00,VWS V14.01,2015-07-07 16:25:00,
2015-07-07 10:30:00,52.2,40.8,30.16,North,11,6.0,14.0,65,0.00,,---,0.00,VWS V14.01,2015-07-07 16:30:00,
2015-07-07 10:35:00,52.7,40.9,30.16,NW,325,4.0,12.0,64,0.00,,---,0.00,VWS V14.01,2015-07-07 16:35:00,
2015-07-07 10:40:00,52.4,41.0,30.16,NW,319,8.0,9.0,65,0.00,,---,0.00,VWS V14.01,2015-07-07 16:40:00,
2015-07-07 10:45:00,52.3,40.5,30.16,North,5,10.0,10.0,64,0.00,,---,0.00,VWS V14.01,2015-07-07 16:45:00,
2015-07-07 10:50:00,52.3,40.9,30.16,North,360,5.0,13.0,65,0.00,,---,0.00,VWS V14.01,2015-07-07 16:50:00,
2015-07-07 10:55:00,53.0,41.6,30.16,NNW,330,4.0,11.0,65,0.00,,---,0.00,VWS V14.01,2015-07-07 16:55:00,
2015-07-07 11:00:00,52.7,40.9,30.16,NNE,14,3.0,9.0,64,0.00,,---,0.00,VWS V14.01,2015-07-07 17:00:00,
2015-07-07 11:05:00,52.8,42.2,30.16,NNW,327,8.0,10.0,67,0.00,,---,0.00,VWS V14.01,2015-07-07 17:05:00,
2015-07-07 11:10:00,53.1,41.7,30.16,North,5,6.0,10.0,65,0.00,,---,0.00,VWS V14.01,2015-07-07 17:10:00,
2015-07-07 11:15:00,53.7,41.4,30.16,NNE,18,0.0,12.0,63,0.00,,---,0.00,VWS V14.01,2015-07-07 17:15:00,
2015-07-07 11:20:00,54.2,42.3,30.16,North,360,11.0,11.0,64,0.00,,---,0.00,VWS V14.01,2015-07-07 17:20:00,
2015-07-07 11:25:00,54.2,41.1,30.16,NNE,13,5.0,11.0,61,0.00,,---,0.00,VWS V14.01,2015-07-07 17:25:00,
2015-07-07 11:30:00,54.5,41.8,30.16,NNW,342,1.0,7.0,62,0.00,,---,0.00,VWS V14.01,2015-07-07 17:30:00,
2015-07-07 11:35:00,55.1,41.9,30.16,North,360,2.0,9.0,61,0.00,,---,0.00,VWS V14.01,2015-07-07 17:35:00,
2015-07-07 11:40:00,55.0,41.0,30.16,North,5,2.0,11.0,59,0.00,,---,0.00,VWS V14.01,2015-07-07 17:40:00,
2015-07-07 11:45:00,55.2,41.1,30.15,North,360,0.0,9.0,59,0.00,,---,0.00,VWS V14.01,2015-07-07 17:45:00,
2015-07-07 11:50:00,54.9,40.9,30.15,North,5,1.0,10.0,59,0.00,,---,0.00,VWS V14.01,2015-07-07 17:50:00,
2015-07-07 11:55:00,55.5,42.3,30.15,North,360,3.0,7.0,61,0.00,,---,0.00,VWS V14.01,2015-07-07 17:55:00,
2015-07-07 12:00:00,55.8,41.7,30.15,NNW,346,3.0,9.0,59,0.00,,---,0.00,VWS V14.01,2015-07-07 18:00:00,
2015-07-07 12:05:00,55.5,41.9,30.15,North,355,5.0,6.0,60,0.00,,---,0.00,VWS V14.01,2015-07-07 18:05:00,
2015-07-07 12:10:00,55.1,41.0,30.15,North,11,2.0,10.0,59,0.00,,---,0.00,VWS V14.01,2015-07-07 18:10:00,
2015-07-07 12:15:00,55.5,41.4,30.15,North,5,0.0,8.0,59,0.00,,---,0.00,VWS V14.01,2015-07-07 18:15:00,
2015-07-07 12:25:00,56.5,41.5,30.14,North,5,0.0,9.0,57,0.00,,---,0.00,VWS V14.01,2015-07-07 18:25:00,
2015-07-07 12:30:00,57.3,42.7,30.14,North,355,1.0,10.0,58,0.00,,---,0.00,VWS V14.01,2015-07-07 18:30:00,
2015-07-07 12:35:00,57.3,40.8,30.14,North,355,0.0,9.0,54,0.00,,---,0.00,VWS V14.01,2015-07-07 18:35:00,
2015-07-07 12:40:00,57.2,43.0,30.14,NW,321,4.0,8.0,59,0.00,,---,0.00,VWS V14.01,2015-07-07 18:40:00,
2015-07-07 12:45:00,56.5,41.5,30.14,NNW,327,1.0,7.0,57,0.00,,---,0.00,VWS V14.01,2015-07-07 18:45:00,
2015-07-07 12:50:00,56.9,40.9,30.14,NNW,338,2.0,5.0,55,0.00,,---,0.00,VWS V14.01,2015-07-07 18:50:00,
2015-07-07 12:55:00,57.5,41.9,30.13,NNW,338,3.0,5.0,56,0.00,,---,0.00,VWS V14.01,2015-07-07 18:55:00,